Location: Unspecified
(48.2082°N, 0.0000°E)
Time: 14:39:02
(UTC+00:00)

Altair - Pass Details

Date: 22 June 2019
Orbit: 1501 x 1683 km, 47.2° (Epoch: 24 August)

Event Time Altitude Azimuth Distance (km) Brightness Sun altitude
Rises 01:03:09 0° 287° (WNW) 4,829 10.1 -17.0°
Reaches altitude 10° 01:06:16 10° 284° (WNW) 3,865 9.6 -16.9°
Maximum altitude 01:15:58 62° 207° (SSW) 1,840 7.6 -16.5°
Drops below altitude 10° 01:25:53 10° 130° (SE) 3,940 9.4 -15.9°
Sets 01:29:06 0° 127° (SE) 4,927 10.0 -15.7°
